Location: Saint Louis
(38.6272°N, 90.1978°W)
Time: 03:37:26
(UTC-05:00)

ISS - Pass Details

Date: 10 April 2013
Orbit: 402 x 406 km, 51.6° (Epoch: 28 August)

Event Time Altitude Azimuth Distance (km) Brightness Sun altitude
Rises 20:19:58 0° 288° (WNW) 2,331 3.0 -9.7°
Reaches altitude 10° 20:23:11 10° 322° (NW) 1,484 0.5 -10.3°
Maximum altitude 20:24:30 12° 346° (NNW) 1,384 -0.2 -10.5°
Drops below altitude 10° 20:25:49 10° 9° (N) 1,496 -0.3 -10.7°
Sets 20:29:06 0° 43° (NE) 2,378 0.3 -11.3°
